Location: Appingedam
(53.3222°N, 6.8488°E)
Time: 10:51:28
(UTC+00:00)

Lacrosse 4 Rocket - Pass Details

Date: 15 May 2026
Orbit: 504 x 567 km, 68.0° (Epoch: 8 June)

Event Time Altitude Azimuth Distance (km) Brightness Sun altitude
Exits shadow 22:42:30 16° 108° (ESE) 1,472 3.2 -16.9°
Maximum altitude 22:42:30 16° 108° (ESE) 1,472 3.2 -16.9°
Drops below altitude 10° 22:44:56 10° 71° (ENE) 1,814 4.1 -17.0°
Sets 22:47:51 0° 49° (NE) 2,728 5.3 -17.1°
